Espace membre
Imprimable
Wissant, 08-09/09/2018, FRA - Trail de la Côte d'Opale
Liste des rapports > 31km - Classement
Recherche: Page: [1]
159 Entrées
 
Les réclamations ne sont plus acceptées, les résultats sont considérés comme définitifs.
RangNrLicenceNomAgeIOCEquipeTempsTkmMoy.ScrLocalité
1.3221LEPOUTRE Bertrand52FRA2:19:574:31 13.293
2.2142A88150C0190107MV3FRAMAZINGARBE Herve50FRATRIATHLON VALENCIENNES2:22:594:37 13.019
3.2437541063REGHEM Didier56FRAVAFA2:30:394:52 12.3521
4.3005DOGUET Jean-Louis54FRAASPTT DIRAC2:30:474:52 12.3422
5.2370PECQUET Franck50FRABOULOGNE AC2:32:084:55 12.2331
6.27741485176CHEVALIER Laurent59FRAASPTT LILLE METROPOLE2:34:485:00 12.0240
7.3396DANET Laurent51FRACLL ARMENTIERES2:35:335:02 11.9642
8.3281HOUZET Jean Baptiste50FRA2:36:215:03 11.9045
9.2403GILLES Van Raemdonck52BELRIWA2:38:025:06 11.7754
10.2250POULAIN Guy55FRA2:40:185:11 11.6066
11.2338DUBUISSON Francis53BELJC BAUDOUR2:41:555:14 11.4974
12.2187VASSEUR Didier51FRATEAM GRAVELINES TRAIL2:44:175:18 11.3289
13.3223MERCHIE Dominique55FRA2:46:435:23 11.16102
14.2817ANDALO Philippe51FRACMDC2:46:575:24 11.14104
15.2576CHEVALIER Christian53FRACPSS2:47:565:26 11.08114
16.2440BLANPAIN Jean Pierre53FRATEAM GRAVELINES TRAIL2:48:525:27 11.01121
17.3119A59489C0130091MV3FRALE GALL Olivier52FRALA BRIE FRANCILIENNE TRIA2:50:255:30 10.91130
18.2744HEURTEAUX Frédéric50FRA2:54:055:37 10.69165
19.3375NATALE Christophe55FRATEAM LMC2:55:225:40 10.61175
20.3231MEUNIER Eric58FRA2:56:165:42 10.55184
21.3384CARBALLO Manuel55FRACOTRITH2:56:225:42 10.55186
22.3199A08235C0190126MV4FRAGRISELAIN Eric55FRATRIATHLON CLUB DE LIEVIN2:56:415:42 10.53189
23.2428COFFOURNIC Laurent50FRA2:59:595:49 10.33228
24.2684VEROUGSTRAETE Jean-Christophe50BEL3:00:055:49 10.33231
25.25121307940DOURIEZ Stephane53FRAUSVA3:00:275:50 10.31234
26.2987DECROIX Hubert50FRA3:00:495:50 10.29238
27.3163BEAUCAMP Jose53FRAEUROTUNNEL3:03:075:55 10.16262
28.2593PERRIN Patrick51FRACO TRITH ATHLETISME3:03:535:56 10.12274
29.3271WARTELLE Jean Dominique50FRAAPREVA3:04:515:58 10.06285
30.2169JOSEPH Yann50FRAACC3:05:326:00 10.03294
31.2564GRÉBAUX Jean-Claude53FRA3:05:536:00 10.01304
32.2436HOUDART Franck53FRAC.O TRITH3:06:166:01 9.99311
33.2050MONTANARI Eric51FRA3:06:396:02 9.97319
34.2539LEYSEN Xavier58BEL3:07:086:03 9.94321
35.2184DELAFOYE Pascal51FRA3:07:166:03 9.93324
36.2826HENNERON Eric55FRA3:08:216:05 9.88344
37.2419CRANINX Luc52BEL3:09:036:06 9.84352
38.3347BASTAERT Jean Marc56FRA3:09:126:07 9.83354
39.2529HENIN Michel52FRA3:09:386:08 9.81361
40.3238MOUILLET BONOMELLI Fred55FRAOUTDOOR TRAINING3:11:296:11 9.71376
41.2734HEUSSCHEN Dominique54FRA3:11:496:12 9.70378
42.2263GOFFIN Pascal59BELJTRR3:12:086:12 9.68382
43.2376BROCAIL Fabien52FRA3:12:236:13 9.67383
44.2553LELOUX Dominique59BEL3:12:406:13 9.65384
45.2433T302521-bGASSER Paul53FRAPASS J'AIME COURIR3:13:116:14 9.63389
46.2697RZASA Patrick56FRA3:13:336:15 9.61401
47.2521MISSIAEN Jean - Luc56FRAASUD JOGGING3:14:036:16 9.59411
48.2557T305090VANDENHECKE Eric54FRAPASS J'AIME COURIR3:14:156:16 9.58413
49.2637A08169C0190126MV3FRARIEZ Dominique52FRA3:14:416:17 9.55418
50.3252PRUVOST Bruno54FRA3:15:076:18 9.53422
51.2473TIMPERMAN Koen52BELTRA>||3:15:436:19 9.50428
52.23781863249HUK Laurent50FRAVAL DE SOMME3:15:576:20 9.49433
53.2802PATERNOSTRE Laurent51BELATHOIS D'COURIR3:17:166:22 9.43447
54.2650MAHIEUX Marc50FRA3:17:176:22 9.43448
55.2140KYNDT Dany50FRATEAM TRAIL GRAVELINES3:18:226:24 9.38461
56.30561448651TRANCART Philippe58FRAVYTAJOG3:19:186:26 9.33474
57.3015SOYEUX Michel56FRACHIERRY J'Y COURS3:19:256:26 9.33476
58.2815GODART Pierre51FRALE ARDENTE3:20:086:28 9.29488
59.29121479429PLANÇON Alain52FRALMA3:20:096:28 9.29489
60.2573ROCCARO Giuseppe53ITA3:21:336:31 9.23504
61.3100LEFEBVRE Jean-Michel56FRASAILLY TEAM3:22:276:32 9.19514
62.3149MALVAUX Vincent56BEL3:23:166:34 9.15529
63.2215CAROLUS Michaël51FRA3:23:456:35 9.13535
64.2494SCHARPE Charles52FRAJE COURS À INCOURT3:24:536:37 9.08552
65.2055HOCQ Bruno51FRAAC OUTREAU3:25:016:37 9.07554
66.2246DELCOURT Jean-Philippe55FRA3:25:366:38 9.05561
67.2757LOOTGIETER Philippe57FRA3:26:306:40 9.01570
68.2132PAU Valentino56FRA3:26:306:40 9.01571
69.3269106843BORDEZ Franck57FRASPORT PLUS COURSE HORS ST3:26:386:40 9.00575
70.2816DEKEISTER Hubert52FRA3:26:406:40 9.00577
71.2128DULOT Eric56FRA3:26:496:41 8.99581
72.2518LEGROS Pascal55BELWAC3:26:546:41 8.99583
73.2544GRUT Dominique53FRA3:26:596:41 8.99586
74.2547478730AMARTIN Emmanuel55FRACS IBM NORD NORMANDIE3:27:006:41 8.99587
75.2424MARTINEAU Alexandre55FRA3:27:316:42 8.96590
76.2482FICHAUX Francois55FRA3:27:576:43 8.94597
77.3193A08165C0190126MV4FRATAKERKART Jean-Denis57FRATC LIEVIN3:27:596:43 8.94598
78.2833SMAGGHE Jose54FRALESCOP1DABORD3:28:056:43 8.94599
79.3343DEMEULENAERE Eric56FRADEMEUL TEAM3:28:086:43 8.94600
80.2273DEWINTRE Lionel53FRACEGEDIM3:28:216:44 8.93603
81.2587VANDERBEKEN Yannick50FRALES COP1 DABORD3:28:216:44 8.93604
82.2484TOULEMONDE Laurent55FRAKESKEFELA3:29:136:45 8.89616
83.3101LECERF Raphael56FRA3:29:176:46 8.89619
84.2333ADRIAENSSENS Marc59BEL3:29:176:46 8.89620
85.2258CAPRIGLIONE Emmanuel51FRA3:29:346:46 8.88627
86.2282FAUCON Patrick56FRA3:30:536:49 8.82648
87.2389DEPRÉ Luc58BEL3:32:446:52 8.74670
88.2480POULAIN Olivier55FRAC.O. TRITH ATHLÉTISME3:32:566:53 8.74671
89.2498QUINTIN Jean-Jacques57FRAJE COURS A INCOURT3:33:186:53 8.72675
90.2072DEPERNE Christof50FRARUNNERS EN NORD3:33:496:54 8.70678
91.3335VANRENTERGHEM Eric55FRALES TRAILEURS DE L'ARTOIS3:33:526:54 8.70680
92.2377STIKER Eric52FRA3:34:046:55 8.69682
93.3139RICHART Pierre53FRAH2R3:34:396:56 8.67692
94.2272FIEVET Patrick51FRA3:34:586:57 8.65696
95.3159MERIAUX Franck53FRA3:35:276:57 8.63702
96.3194BAILLARD Thierry54FRA3:36:216:59 8.60709
97.2502ANTOINE Benoit56FRA3:36:337:00 8.59714
98.3357DROUILLON Philippe52BELNIVELLES ATHLETIC CLUB3:36:477:00 8.58717
99.2581DOUADI Youcef50FRA3:37:047:01 8.57722
100.3359MEURANT Jean-Pierre59FRA3:37:267:01 8.55724
101.2194FOUQUART Jean-Luc51FRAVIVEMENT HARDELOT3:37:447:02 8.54725
102.2082VANMAELE Frédéric52FRAUSCUD3:38:037:03 8.53729
103.2809LAMBERT Olivier53FRAPIOU TRANKILOU3:38:217:03 8.52734
104.2172DROBINOHA Guy52FRA3:39:117:05 8.49742
105.2828MENTION Philippe56FRAASPTT DIRAC3:39:577:06 8.46755
106.2253ACCETTONE Bruno50FRA3:40:287:07 8.44760
107.2860MOURAIN Eric54FRA3:40:477:08 8.43765
108.3203NAVET Sebastien50FRAAC OUTREAU3:40:527:08 8.42766
109.2040NATANNI Christophe52FRA3:41:017:08 8.42769
110.2999LATREILLE Philippe50FRA3:41:347:09 8.40776
111.2256VANNIEUWENHUYSE ¨pascal50FRAGRAND PORT MARITIME DE DU3:42:087:10 8.37789
112.2777DELATTRE François53FRA3:42:447:12 8.35796
113.2519DE BROUWER Frederic50FRA3:42:447:12 8.35797
114.15431441406FEDJKHI Brahim50FRACAMB3:42:557:12 8.34798
115.2318BRACHOT Philippe51FRAASPTT DIRAC3:44:597:16 8.27820
116.2458FOLCQUE Philippe54BELRCNAMUR3:45:587:18 8.23838
117.3114KIK Christophe50FRALES ROULEUX DE SOLESMES3:46:187:18 8.22843
118.2879BABIN Philippe50FRAHUMANIS3:46:237:19 8.22846
119.3376VAN HAEVERE Danny52FRATEAM LMC3:46:447:19 8.20851
120.3386DOHIN Jean Claude53FRA3:48:117:22 8.15860
121.3134PISTILLO Antonio54FRA3:49:257:25 8.11877
122.3164GALLETTI Andrea56ITA3:50:047:26 8.08879
123.2747VANDEVELDE Bernard54BELLOVENTURE3:50:067:26 8.08880
124.2522GENICOT Pascal56BELRUNNING TEAM CONDROZ3:51:017:28 8.05890
125.2885LOMBAERT Dirk59BEL3:52:347:31 8.00910
126.3267DETHOOR Dominique58FRA3:53:047:32 7.98919
127.25241932538BOMPARD Eric50FRAJOGGING AVENTURE RONSQ3:54:317:34 7.93932
128.2599SARENS Jos58BELAC DENDERLAND3:55:147:36 7.91940
129.2307LEMAIRE Franck53FRA3:56:017:37 7.88948
130.3141BOULANGER Christian58FRA3:56:207:38 7.87949
131.2074LANNOYE Bruno51FRA3:57:357:40 7.83957
132.2164BEAUBOIS Xavier59FRA3:57:517:41 7.82958
133.2640MASSOT Philippe54FRA3:58:247:42 7.80961
134.2276VANDER PLANCKE Marc59FRACOURIR A BAISIEUX4:01:467:48 7.69998
135.2904MADAU Jean Pierre52FRAGIO SARDO4:01:527:49 7.69999
136.30471464492DEVULDER Jean Luc57FRALILLE METROPOLE ATHLETISM4:03:267:52 7.641011
137.2369DURETETE Damien56FRA4:07:267:59 7.521022
138.3118FLAMENT Fabrice50FRALES ESCARGEOTS4:07:428:00 7.511023
139.2829MARSOLLIER Patrice53FRAASPTT DIRAC4:07:478:00 7.511024
140.2909MAHIEUX Fabien54FRA4:08:008:00 7.501026
141.3186CARETTE Christian50BELMAUBEUGE MARATHON4:09:298:03 7.461029
142.2295GRANDMONT André57BELARCH4:11:098:07 7.411046
143.2570VANCAYSEELE Patrick50FRA4:11:488:08 7.391047
144.2783GRULOIS Erik50BELJC BLANDAIN4:13:338:11 7.341058
145.2751DOUILLET Ronald54BEL4:13:358:11 7.331059
146.2211JOLAIN Nicolas54FRA4:15:578:16 7.271072
147.2622DURY Michel52BELGAG4:16:188:17 7.261074
148.3083PLATTEAU Olivier50FRAJC BAUDOUR4:18:158:20 7.201080
149.2606VANDERVEKEN Eric54FRA4:20:258:25 7.141084
150.2206BOULOY Philippe52FRAPIOU TRANKILOU4:28:088:39 6.941108
151.2687MERY Ludovic51FRA4:32:178:47 6.831118
152.2963DESREUMAUX Thierry53FRA4:34:018:51 6.791121
153.3373FROUMENTIN Jean-Louis51FRATEAM LMC4:37:418:58 6.701127
154.2090SARTRE Jean-Marc55FRAUSCUD4:43:249:09 6.561134
155.3297TOULEMONDE Arnauld54FRAXRACING4:49:449:21 6.421136
156.20371523478VANSTEENKISTE Bernard58FRAUS CAMON4:52:109:26 6.371137
157.2038LATOUR Olivier52FRA5:04:039:49 6.121140
DNF2488LAVINA Christophe51FRA
DNF2515MULLIEZ Fabien55FRA
DNF: abandon; DSQ: disqualifié; Vitesse en km/h
Page: [1]